La Plata, MO

12:23 PM CST on February 10, 2016 (GMT -0600)
Kirksville Regional

Weather History for KIRK - October, 2013

Change the Weather History Date:

Tuesday, October 15, 2013

  Actual Average Record
Temperature  
Mean Temperature 56 °F 53 °F  
Max Temperature 63 °F 64 °F 89 °F (1938)
Min Temperature 48 °F 43 °F 29 °F (1937)
Degree Days  
Heating Degree Days 9 12  
Month to date heating degree days 89 147  
Since 1 July heating degree days 159 254  
Cooling Degree Days 0 0  
Month to date cooling degree days 32 10  
Year to date cooling degree days 1028 937  
Growing Degree Days 5 (Base 50)    
Moisture  
Dew Point 50 °F    
Average Humidity 73    
Maximum Humidity 100    
Minimum Humidity 46    
Precipitation  
Precipitation 0.14 in 0.12 in 1.50 in (1967)
Month to date precipitation 0.65 1.65  
Year to date precipitation 32.23 33.17  
Sea Level Pressure  
Sea Level Pressure 29.92 in    
Wind  
Wind Speed 12 mph (WSW)    
Max Wind Speed 18 mph    
Max Gust Speed 28 mph    
Visibility 8 miles    
Events Rain    
T = Trace of Precipitation, MM = Missing Value Source: NWS Daily Summary

Daily Weather History Graph

Daily Weather History Graph

Search for Another Location

Airport or City:

Trip Planner

Search our weather history database for the weather conditions in past years. The results will help you decide how hot, cold, wet, or windy it might be!

Date:

Astronomy

Oct. 15, 2013 Rise Set
Actual Time 7:20 AM CDT 6:30 PM CDT
Civil Twilight 6:53 AM CDT 6:57 PM CDT
Nautical Twilight 6:22 AM CDT 7:28 PM CDT
Astronomical Twilight 5:50 AM CDT 8:00 PM CDT
Moon 4:35 PM CDT (10/15) 3:44 AM CDT (10/15)
Length of Visible Light 12h 03m
Length of Day
11h 09m
Waxing Gibbous, 88% of the Moon is Illuminated
Oct 15
Waxing Gibbous
Oct 18
Full
Oct 26
Last Quarter
Nov 3
New
Nov 9
First Quarter

Hourly Weather History & Observations

Time (CDT) Temp. Dew Point Humidity Pressure Visibility Wind Dir Wind Speed Gust Speed Precip Events Conditions
12:55 AM 57.9 °F 51.1 °F 78% 29.95 in 10.0 mi SSE 17.3 mph - N/A   Mostly Cloudy
1:55 AM 57.0 °F 54.0 °F 89% 29.93 in 10.0 mi South 11.5 mph - 0.00 in   Mostly Cloudy
2:55 AM 57.9 °F 55.9 °F 93% 29.91 in 4.0 mi SSE 13.8 mph - 0.04 in Rain Rain
3:45 AM 57.2 °F 57.2 °F 100% 29.91 in 3.0 mi South 8.1 mph - 0.07 in Rain Light Rain
3:50 AM 57.2 °F 57.2 °F 100% 29.91 in 3.0 mi South 6.9 mph - 0.07 in Rain Light Rain
3:55 AM 57.9 °F 57.0 °F 97% 29.91 in 2.5 mi South 8.1 mph - 0.08 in Rain Light Rain
4:04 AM 57.2 °F 57.2 °F 100% 29.91 in 3.0 mi South 9.2 mph - 0.00 in Rain Light Rain
4:10 AM 57.2 °F 57.2 °F 100% 29.91 in 2.5 mi South 8.1 mph - 0.00 in Rain Light Rain
4:17 AM 57.2 °F 57.2 °F 100% 29.91 in 2.0 mi South 6.9 mph - 0.01 in Rain Light Rain
4:46 AM 59.0 °F 57.2 °F 94% 29.89 in 2.0 mi South 10.4 mph - 0.02 in   Overcast
4:55 AM 59.0 °F 57.9 °F 96% 29.88 in 2.5 mi SSE 11.5 mph - 0.02 in   Overcast
5:10 AM 59.0 °F 57.2 °F 94% 29.86 in 3.0 mi SSE 11.5 mph - N/A   Overcast
5:55 AM 60.1 °F 59.0 °F 96% 29.87 in 4.0 mi SSW 11.5 mph - N/A   Overcast
6:05 AM 60.8 °F 59.0 °F 94% 29.86 in 4.0 mi SSW 8.1 mph - N/A   Overcast
6:55 AM 60.1 °F 59.0 °F 96% 29.88 in 6.0 mi SW 8.1 mph - N/A   Overcast
7:42 AM 60.8 °F 57.2 °F 88% 29.88 in 7.0 mi Variable 5.8 mph - N/A   Overcast
7:51 AM 60.8 °F 57.2 °F 88% 29.88 in 7.0 mi SW 6.9 mph - N/A   Overcast
7:55 AM 60.1 °F 57.9 °F 93% 29.89 in 7.0 mi WSW 5.8 mph - N/A   Overcast
8:07 AM 59.0 °F 57.2 °F 94% 29.89 in 9.0 mi WNW 13.8 mph 18.4 mph N/A   Overcast
8:14 AM 57.2 °F 55.4 °F 94% 29.89 in 10.0 mi WNW 10.4 mph 18.4 mph N/A   Overcast
8:32 AM 57.2 °F 53.6 °F 88% 29.90 in 10.0 mi West 10.4 mph - N/A   Overcast
8:48 AM 55.4 °F 51.8 °F 88% 29.90 in 10.0 mi West 12.7 mph 20.7 mph N/A   Overcast
8:55 AM 54.0 °F 48.9 °F 83% 29.91 in 10.0 mi West 15.0 mph 20.7 mph N/A   Overcast
9:20 AM 53.6 °F 48.2 °F 82% 29.91 in 10.0 mi West 15.0 mph - N/A   Overcast
9:55 AM 55.0 °F 50.0 °F 83% 29.93 in 10.0 mi West 8.1 mph 16.1 mph N/A   Overcast
10:55 AM 55.9 °F 48.0 °F 75% 29.92 in 10.0 mi WSW 10.4 mph - N/A   Mostly Cloudy
11:05 AM 57.2 °F 48.2 °F 72% 29.91 in 10.0 mi West 10.4 mph - N/A   Scattered Clouds
11:16 AM 57.2 °F 48.2 °F 72% 29.92 in 10.0 mi West 10.4 mph 19.6 mph N/A   Mostly Cloudy
11:42 AM 59.0 °F 46.4 °F 63% 29.92 in 10.0 mi West 11.5 mph 18.4 mph N/A   Scattered Clouds
11:52 AM 59.0 °F 46.4 °F 63% 29.92 in 10.0 mi WSW 10.4 mph 17.3 mph N/A   Mostly Cloudy
11:55 AM 59.0 °F 46.0 °F 62% 29.93 in 10.0 mi WSW 11.5 mph 17.3 mph N/A   Mostly Cloudy
12:22 PM 57.2 °F 44.6 °F 63% 29.92 in 10.0 mi West 12.7 mph 20.7 mph N/A   Scattered Clouds
12:55 PM 60.1 °F 44.1 °F 55% 29.92 in 10.0 mi West 13.8 mph 23.0 mph N/A   Clear
1:55 PM 61.0 °F 42.1 °F 50% 29.91 in 10.0 mi WSW 9.2 mph 19.6 mph N/A   Clear
2:55 PM 62.1 °F 42.1 °F 48% 29.91 in 10.0 mi West 15.0 mph 23.0 mph N/A   Clear
3:55 PM 62.1 °F 41.0 °F 46% 29.92 in 10.0 mi West 10.4 mph 18.4 mph N/A   Clear
4:55 PM 60.1 °F 41.0 °F 49% 29.93 in 10.0 mi West 15.0 mph 20.7 mph N/A   Partly Cloudy
5:55 PM 57.0 °F 39.9 °F 53% 29.94 in 10.0 mi West 15.0 mph 18.4 mph N/A   Partly Cloudy
6:55 PM 53.1 °F 39.0 °F 59% 29.97 in 10.0 mi West 11.5 mph - N/A   Clear
7:55 PM 51.1 °F 39.0 °F 63% 29.99 in 10.0 mi WNW 9.2 mph - N/A   Clear
8:55 PM 51.1 °F 37.9 °F 61% 30.00 in 10.0 mi West 11.5 mph 20.7 mph N/A   Mostly Cloudy
9:55 PM 51.1 °F 37.9 °F 61% 30.01 in 10.0 mi West 15.0 mph 20.7 mph N/A   Overcast
10:55 PM 48.9 °F 37.9 °F 66% 30.01 in 10.0 mi WNW 9.2 mph 19.6 mph N/A   Mostly Cloudy
11:52 PM 48.2 °F 37.4 °F 66% 30.00 in 10.0 mi WNW 12.7 mph 26.5 mph N/A   Overcast
11:55 PM 48.9 °F 37.9 °F 66% 30.01 in 10.0 mi WNW 13.8 mph 26.5 mph N/A   Overcast